Overview Statistics Trail Chart Weather Telemetry Raw packets
 

This is the latest recevied weather packets stored in our database for station/object OK1FET-4. If no packets are shown the sender has not sent any weather packets the latest 10 day(s).

<< 32 33 34 35 36 37 38 >>
Time Temp. Humidity Pressure Rain* Wind** Luminosity Snow
1788440960 22.78° C 47% 1019.7 hPa - - - -
1788440659 23.33° C 47% 1019.8 hPa - - - -
1788440358 23.89° C 46% 1019.9 hPa - - - -
1788440057 23.89° C 45% 1020 hPa - - - -
1788439755 23.89° C 45% 1019.8 hPa - - - -
1788439473 23.89° C 50% 1019.9 hPa - - - -
1788439153 23.89° C 47% 1019.9 hPa - - - -
1788438852 23.33° C 47% 1019.9 hPa - - - -
1788438551 22.78° C 47% 1019.9 hPa - - - -
1788438249 22.78° C 47% 1019.9 hPa - - - -
1788437948 22.78° C 47% 1019.8 hPa - - - -
1788437647 22.78° C 47% 1020.1 hPa - - - -
1788437346 22.78° C 48% 1019.9 hPa - - - -
1788437045 22.78° C 47% 1020 hPa - - - -
1788436744 22.78° C 48% 1020 hPa - - - -
1788436443 22.22° C 47% 1020.2 hPa - - - -
1788436141 22.22° C 48% 1020.1 hPa - - - -
1788435840 22.22° C 49% 1020.3 hPa - - - -
1788435539 22.22° C 48% 1020.4 hPa - - - -
1788435238 22.22° C 48% 1020.4 hPa - - - -
1788434937 22.22° C 53% 1020.6 hPa - - - -
1788434636 22.78° C 49% 1020.4 hPa - - - -
1788434335 22.78° C 52% 1020.5 hPa - - - -
1788434033 22.78° C 48% 1020.6 hPa - - - -
1788433732 23.33° C 48% 1020.6 hPa - - - -

* Rain since midnight (hover to see other rain measurements)
** Current wind speed in m/s (hover to see current wind gust speed)